Youngstown, OH

12:48 AM EST on November 18, 2019 (GMT -0500)
Youngstown-Warren Regional

Weather History for KYNG - September, 2019

Change the Weather History Date:

Saturday, September 21, 2019

  Actual Average Record
Temperature  
Mean Temperature 72 °F 60 °F  
Max Temperature 86 °F 70 °F 92 °F (1940)
Min Temperature 59 °F 50 °F 30 °F (1897)
Degree Days  
Heating Degree Days 0 6  
Month to date heating degree days 13 75  
Since 1 July heating degree days 19 113  
Cooling Degree Days 8 1  
Month to date cooling degree days 72 43  
Year to date cooling degree days 736 529  
Growing Degree Days 22 (Base 50)    
Moisture  
Dew Point 62 °F    
Average Humidity 73    
Maximum Humidity 90    
Minimum Humidity 49    
Precipitation  
Precipitation 0.00 in 0.13 in 2.44 in (1992)
Month to date precipitation 4.30 2.67  
Year to date precipitation 38.82 28.89  
Snow  
Snow 0.00 in 0.00 in - ()
Month to date snowfall 0.0 0.0  
Since 1 July snowfall 0.0 0.0  
Since 1 September snowfall 0.0 0.0  
Snow Depth 0.00 in    
Sea Level Pressure  
Sea Level Pressure 30.18 in    
Wind  
Wind Speed 5 mph ()    
Max Wind Speed 10 mph    
Max Gust Speed 13 mph    
Visibility 9.8 miles    
Events      
T = Trace of Precipitation, MM = Missing Value Source: Averaged Metar Reports

Daily Weather History Graph

Daily Weather History Graph

Search for Another Location

Airport or City:

Astronomy

Sep. 21, 2019 Rise Set
Actual Time 7:08 AM EDT 7:22 PM EDT
Civil Twilight 6:41 AM EDT 7:49 PM EDT
Nautical Twilight 6:09 AM EDT 8:21 PM EDT
Astronomical Twilight 5:35 AM EDT 8:54 PM EDT
Moon 11:54 PM EDT (9/21) 2:17 PM EDT (9/21)
Length of Visible Light 13h 08m
Length of Day
12h 13m
Waning Gibbous, 55% of the Moon is Illuminated
Sep 21
Waning Gibbous
Sep 21
Last Quarter
Sep 28
New
Oct 5
First Quarter
Oct 13
Full

Hourly Weather History & Observations

Time (EDT) Temp. Heat Index Dew Point Humidity Pressure Visibility Wind Dir Wind Speed Gust Speed Precip Events Conditions
12:51 AM 64.0 °F - 55.9 °F 75% 30.19 in 10.0 mi ESE 8.1 mph - N/A   Mostly Cloudy
1:51 AM 63.0 °F - 55.9 °F 78% 30.19 in 10.0 mi ESE 8.1 mph - N/A   Scattered Clouds
2:51 AM 62.1 °F - 55.9 °F 80% 30.19 in 10.0 mi SE 8.1 mph - N/A   Scattered Clouds
3:51 AM 61.0 °F - 55.9 °F 83% 30.18 in 10.0 mi SE 6.9 mph - N/A   Partly Cloudy
4:51 AM 61.0 °F - 55.9 °F 83% 30.18 in 10.0 mi East 5.8 mph - N/A   Partly Cloudy
5:51 AM 60.1 °F - 55.9 °F 86% 30.19 in 10.0 mi ESE 5.8 mph - N/A   Scattered Clouds
6:51 AM 59.0 °F - 55.9 °F 90% 30.20 in 10.0 mi ESE 6.9 mph - N/A   Mostly Cloudy
7:51 AM 61.0 °F - 57.0 °F 87% 30.22 in 10.0 mi SE 3.5 mph - N/A   Mostly Cloudy
8:51 AM 66.9 °F - 61.0 °F 81% 30.22 in 9.0 mi SSE 4.6 mph - N/A   Scattered Clouds
9:51 AM 71.1 °F - 64.0 °F 78% 30.23 in 9.0 mi South 4.6 mph - N/A   Scattered Clouds
10:51 AM 75.0 °F - 66.0 °F 73% 30.22 in 9.0 mi South 4.6 mph - N/A   Scattered Clouds
11:51 AM 78.1 °F - 66.9 °F 68% 30.21 in 9.0 mi South 6.9 mph - N/A   Partly Cloudy
12:51 PM 82.0 °F 84.5 °F 66.9 °F 60% 30.19 in 9.0 mi SW 8.1 mph - N/A   Partly Cloudy
1:51 PM 82.9 °F 84.6 °F 64.9 °F 54% 30.17 in 10.0 mi West 6.9 mph - N/A   Scattered Clouds
2:51 PM 84.9 °F 86.1 °F 64.0 °F 49% 30.16 in 10.0 mi SW 4.6 mph - N/A   Scattered Clouds
3:51 PM 82.0 °F 83.4 °F 64.0 °F 54% 30.14 in 10.0 mi WNW 6.9 mph - N/A   Scattered Clouds
4:51 PM 84.0 °F 85.4 °F 64.0 °F 51% 30.14 in 10.0 mi Variable 5.8 mph - N/A   Scattered Clouds
5:51 PM 82.9 °F 84.6 °F 64.9 °F 54% 30.14 in 10.0 mi SSW 5.8 mph - N/A   Scattered Clouds
6:51 PM 79.0 °F - 68.0 °F 69% 30.14 in 10.0 mi Calm Calm - N/A   Scattered Clouds
7:51 PM 72.0 °F - 66.9 °F 84% 30.14 in 10.0 mi Calm Calm - N/A   Scattered Clouds
8:51 PM 75.0 °F - 66.0 °F 73% 30.16 in 10.0 mi SW 4.6 mph - N/A   Scattered Clouds
9:51 PM 73.0 °F - 66.0 °F 79% 30.16 in 10.0 mi Calm Calm - N/A   Mostly Cloudy
10:51 PM 70.0 °F - 64.9 °F 84% 30.16 in 10.0 mi South 5.8 mph - N/A   Scattered Clouds
11:51 PM 70.0 °F - 64.9 °F 84% 30.16 in 10.0 mi SSW 3.5 mph - N/A   Partly Cloudy